Hailey, ID

10:55 PM MDT on September 24, 2017 (GMT -0600)
Friedman Memorial

Weather History for KSUN - February, 2014

Change the Weather History Date:

Tuesday, February 25, 2014

  Actual Average Record
Temperature  
Mean Temperature 39 °F -  
Max Temperature 48 °F 37 °F 51 °F (2002)
Min Temperature 30 °F 15 °F 5 °F (1997)
Degree Days  
Heating Degree Days 26    
Moisture  
Dew Point 28 °F    
Average Humidity 74    
Maximum Humidity 87    
Minimum Humidity 57    
Precipitation  
Precipitation 0.00 in - - ()
Sea Level Pressure  
Sea Level Pressure 30.03 in    
Wind  
Wind Speed 8 mph (NW)    
Max Wind Speed 12 mph    
Max Gust Speed -    
Visibility 10 miles    
Events      
Averages and records for this station are not official NWS values.
T = Trace of Precipitation, MM = Missing Value Source: NWS Daily Summary

Daily Weather History Graph

Daily Weather History Graph

Search for Another Location

Airport or City:

Trip Planner

Search our weather history database for the weather conditions in past years. The results will help you decide how hot, cold, wet, or windy it might be!

Date:

Astronomy

Feb. 25, 2014 Rise Set
Actual Time 7:20 AM MST 6:21 PM MST
Civil Twilight 6:51 AM MST 6:49 PM MST
Nautical Twilight 6:18 AM MST 7:23 PM MST
Astronomical Twilight 5:44 AM MST 7:56 PM MST
Moon 4:23 AM MST 2:26 PM MST
Length of Visible Light 11h 58m
Length of Day
11h 01m
Waning Crescent, 17% of the Moon is Illuminated
Feb 25
Waning Crescent
Mar 1
New
Mar 8
First Quarter
Mar 16
Full
Mar 23
Last Quarter

Hourly Weather History & Observations

Time (MST) Temp. Windchill Dew Point Humidity Pressure Visibility Wind Dir Wind Speed Gust Speed Precip Events Conditions
12:15 AM 33.8 °F 25.8 °F 26.6 °F 75% 30.02 in 10.0 mi NNW 10.4 mph - N/A   Clear
12:35 AM 33.8 °F 25.8 °F 26.6 °F 75% 30.02 in 10.0 mi NNW 10.4 mph - N/A   Clear
12:55 AM 33.8 °F 26.4 °F 26.6 °F 75% 30.02 in 10.0 mi NW 9.2 mph - N/A   Clear
1:15 AM 32.0 °F 23.6 °F 26.6 °F 80% 30.02 in 10.0 mi NNW 10.4 mph - N/A   Clear
2:55 AM 32.0 °F 24.2 °F 24.8 °F 75% 30.01 in 10.0 mi NNW 9.2 mph - N/A   Clear
3:15 AM 32.0 °F 24.2 °F 24.8 °F 75% 30.00 in 10.0 mi NW 9.2 mph - N/A   Clear
3:35 AM 32.0 °F 23.6 °F 24.8 °F 75% 30.00 in 10.0 mi NW 10.4 mph - N/A   Clear
3:55 AM 32.0 °F 24.8 °F 24.8 °F 75% 30.00 in 10.0 mi NW 8.1 mph - N/A   Clear
4:15 AM 32.0 °F 24.8 °F 24.8 °F 75% 29.99 in 10.0 mi NW 8.1 mph - N/A   Clear
4:35 AM 32.0 °F 23.6 °F 24.8 °F 75% 29.99 in 10.0 mi NW 10.4 mph - N/A   Clear
4:55 AM 32.0 °F 26.4 °F 24.8 °F 75% 29.99 in 10.0 mi WNW 5.8 mph - N/A   Clear
5:20 AM 30.2 °F 26.7 °F 24.8 °F 80% 29.99 in 10.0 mi North 3.5 mph - N/A   Clear
5:35 AM 30.2 °F 26.7 °F 24.8 °F 80% 29.99 in 10.0 mi NW 3.5 mph - N/A   Clear
5:55 AM 30.2 °F 23.4 °F 24.8 °F 80% 29.99 in 10.0 mi NW 6.9 mph - N/A   Clear
6:47 AM 30.2 °F 24.3 °F 24.8 °F 80% 29.99 in 10.0 mi WNW 5.8 mph - N/A   Scattered Clouds
7:47 AM 30.2 °F 22.6 °F 24.8 °F 80% 30.00 in 10.0 mi WNW 8.1 mph - N/A   Mostly Cloudy
8:47 AM 32.0 °F 24.2 °F 26.6 °F 80% 30.02 in 10.0 mi NW 9.2 mph - N/A   Mostly Cloudy
9:50 AM 35.6 °F 29.9 °F 26.6 °F 70% 30.03 in 10.0 mi WNW 6.9 mph - N/A   Mostly Cloudy
10:50 AM 39.2 °F 34.2 °F 30.2 °F 70% 30.03 in 10.0 mi NW 6.9 mph - N/A   Scattered Clouds
11:55 AM 42.8 °F 39.3 °F 32.0 °F 66% 30.03 in 10.0 mi SE 5.8 mph - N/A   Mostly Cloudy
12:50 PM 42.8 °F 38.6 °F 33.8 °F 70% 30.03 in 10.0 mi ESE 6.9 mph - N/A   Partly Cloudy
1:55 PM 44.6 °F 39.2 °F 35.6 °F 71% 30.02 in 10.0 mi SE 10.4 mph - N/A   Scattered Clouds
2:47 PM 46.4 °F 41.1 °F 35.6 °F 66% 30.01 in 10.0 mi ESE 11.5 mph - N/A   Partly Cloudy
3:47 PM 48.2 °F - 35.6 °F 62% 30.02 in 10.0 mi SE 11.5 mph - N/A   Scattered Clouds
4:47 PM 46.4 °F 41.9 °F 35.6 °F 66% 30.02 in 10.0 mi SSE 9.2 mph - N/A   Partly Cloudy
5:50 PM 46.4 °F 42.9 °F 33.8 °F 62% 30.03 in 10.0 mi SSE 6.9 mph - N/A   Mostly Cloudy
6:47 PM 44.6 °F 42.2 °F 32.0 °F 61% 30.05 in 10.0 mi SE 4.6 mph - N/A   Mostly Cloudy
7:47 PM 42.8 °F 40.1 °F 28.4 °F 57% 30.07 in 10.0 mi NW 4.6 mph - N/A   Mostly Cloudy
8:47 PM 37.4 °F - 28.4 °F 70% 30.07 in 10.0 mi Calm Calm - N/A   Mostly Cloudy
9:47 PM 35.6 °F - 28.4 °F 75% 30.08 in 10.0 mi Calm Calm - N/A   Mostly Cloudy
10:15 PM 35.6 °F 32.8 °F 30.2 °F 81% 30.08 in 10.0 mi NNW 3.5 mph - N/A   Scattered Clouds
10:35 PM 35.6 °F 30.7 °F 28.4 °F 75% 30.08 in 10.0 mi NNW 5.8 mph - N/A   Scattered Clouds
10:47 PM 35.6 °F 29.9 °F 28.4 °F 75% 30.08 in 10.0 mi NW 6.9 mph - N/A   Partly Cloudy
10:55 PM 33.8 °F 27.7 °F 30.2 °F 87% 30.08 in 10.0 mi NW 6.9 mph - N/A   Clear
11:15 PM 32.0 °F - 28.4 °F 87% 30.09 in 10.0 mi Calm Calm - N/A   Clear
11:35 PM 32.0 °F - 28.4 °F 87% 30.09 in 10.0 mi Calm Calm - N/A   Clear
11:55 PM 32.0 °F - 28.4 °F 87% 30.09 in 10.0 mi Calm Calm - N/A   Clear